Lid_Strength_Index
1 1 2 2 2 2 3 4 4 5 4 4 5 6 6 7 8 7 5 3 1 2 2 0 -0 -0 -1 -1 -1 -1 -1 -1 -0 -1 -1 -1 -1 -2 -2 -1 -0 -1 -0
3 3 3 3 3 3 3 3 4 5 5 4 5 6 7 8 8 9 9 8 4 4 4 2 2 1 0 0 -0 -0 -1 -1 -0 0 0 0 -0 -1 -1 -1 -2 -2 -0
4 4 4 4 4 3 4 5 6 6 6 6 7 7 8 9 9 10 11 11 10 8 6 4 4 3 3 2 1 1 1 1 1 1 1 1 1 0 0 -0 -0 -1 -1
5 5 5 5 5 5 5 6 7 8 9 8 9 9 9 10 11 12 12 12 12 12 11 7 6 5 4 3 2 2 2 2 2 2 2 2 2 1 1 1 1 -0 -0
6 6 7 7 6 7 9 10 11 10 9 9 9 10 11 13 14 14 14 14 14 14 14 11 10 8 6 4 3 3 3 3 3 3 3 3 3 3 3 2 1 1 1
9 8 8 8 9 11 12 12 12 12 12 11 10 12 13 14 15 16 16 15 15 15 15 15 14 13 7 5 5 5 4 4 4 5 5 4 4 4 4 3 2 2 1
11 11 12 12 12 12 13 13 14 12 14 14 13 13 14 15 16 16 17 16 16 15 15 15 15 14 13 9 8 7 6 5 5 5 5 5 5 4 4 4 3 3 2
13 13 13 14 14 14 14 15 15 16 16 16 12 13 14 13 14 16 17 16 17 16 16 15 15 14 15 14 12 8 7 6 6 6 6 6 6 5 4 3 3 3 3
14 14 14 15 15 15 16 16 16 16 17 17 16 14 17 16 17 14 17 17 17 17 17 16 15 15 15 15 14 12 9 8 7 7 7 6 6 5 4 4 3 3 3
15 15 15 16 16 16 16 17 16 17 17 18 17 17 18 18 19 20 18 18 17 17 18 17 16 15 16 16 14 12 10 10 9 8 8 7 6 5 4 4 3 3 3
16 16 16 16 17 16 17 17 17 17 17 18 18 18 18 19 19 20 21 19 18 18 18 17 17 17 16 16 16 14 11 10 10 9 8 7 6 5 4 4 3 3 3
17 17 17 17 17 17 17 17 17 17 17 17 18 18 18 19 20 20 21 20 20 18 18 17 17 17 17 17 15 13 12 11 10 8 8 7 6 6 5 4 3 3 2
18 18 17 17 17 17 17 17 18 18 18 18 18 18 18 18 18 19 19 20 20 19 18 18 17 17 16 17 16 13 13 11 9 8 8 7 7 6 6 5 4 4 4
18 18 18 18 18 18 18 18 18 18 19 19 19 19 18 18 18 18 19 20 21 20 19 19 18 17 17 16 15 13 14 11 9 8 8 8 7 6 5 5 5 4 4
18 18 18 18 18 18 18 19 19 19 19 19 19 19 19 19 19 19 18 18 19 22 21 20 19 17 17 16 15 15 15 12 10 9 8 7 7 6 5 5 4 4 4
18 18 18 18 19 19 19 19 20 19 20 20 19 19 19 19 19 19 19 19 19 20 21 19 19 18 17 15 14 15 14 11 11 9 8 7 6 5 5 4 4 3 3
18 18 18 19 19 19 19 20 20 20 20 20 20 20 19 19 20 20 19 19 19 20 21 19 18 17 17 16 15 14 13 13 12 9 7 6 6 5 5 4 4 4 4
18 19 19 19 19 19 20 19 20 20 20 20 20 20 20 19 20 20 20 20 20 19 20 20 18 17 16 15 14 14 12 11 12 9 6 6 5 5 5 5 5 5 5
19 19 19 19 19 19 19 19 19 19 20 20 19 19 19 19 20 20 20 20 19 18 18 18 18 16 15 14 14 13 12 12 10 8 6 6 6 6 6 6 6 6 6
19 19 19 19 19 19 19 18 19 19 20 20 19 19 19 19 19 19 19 19 18 18 17 17 17 16 14 13 13 14 14 12 11 9 8 8 8 8 7 7 7 7 7
19 19 19 19 19 19 18 18 18 19 19 19 19 18 18 18 16 16 18 18 17 17 17 17 16 15 14 13 14 13 13 12 12 10 11 11 11 11 10 8 8 8 6
19 19 19 19 19 18 16 15 17 18 18 19 19 18 18 17 15 14 13 12 13 17 21 21 15 14 13 13 12 12 12 13 14 10 13 13 11 11 10 10 8 7 7
19 19 19 18 18 18 15 14 14 18 18 18 18 17 17 16 17 17 14 11 10 9 9 12 13 12 12 12 11 11 11 12 13 11 13 14 11 12 10 9 7 7 7
18 18 18 18 18 18 14 13 13 17 18 18 17 17 17 16 16 16 16 15 14 13 12 11 11 11 11 9 9 9 11 14 13 12 11 15 12 12 11 10 7 7 7
18 18 17 17 17 17 14 13 13 16 16 16 16 17 16 16 13 11 13 15 14 13 10 8 7 6 6 6 7 11 17 22 17 14 12 13 12 14 12 11 9 8 8
17 17 17 17 17 16 14 12 12 15 17 16 17 16 13 14 12 10 12 15 15 13 12 13 12 11 10 12 9 11 13 17 16 18 12 14 13 13 16 12 11 11 11